• en France
  • Liste des pays
  • À 7 jours
  • Température de l'eau
  • Carte satellitaire
  • Carte météo
  • Widgets météo
  • user-avatar
    Se connecter

    Météo par heure à Dziadowice

    Ce jour, 22 Octobre, Lundi

    Heure Température Précipitation Vent Pression Humidité
    00:00 +7°C° 0 mm 1 m/s 757 mmHg 80%
    01:00 +5°C° 0 mm 2 m/s 757 mmHg 81%
    02:00 +5°C° 0 mm 2 m/s 756 mmHg 82%
    03:00 +5°C° 0 mm 2 m/s 756 mmHg 83%
    04:00 +5°C° 0 mm 2 m/s 756 mmHg 84%
    05:00 +5°C° 0 mm 2 m/s 756 mmHg 85%
    06:00 +4°C° 0 mm 2 m/s 756 mmHg 85%
    07:00 +4°C° 0 mm 2 m/s 756 mmHg 85%
    08:00 +5°C° 0 mm 3 m/s 755 mmHg 78%
    09:00 +8°C° 0 mm 3 m/s 755 mmHg 71%
    10:00 +10°C° 0 mm 3 m/s 755 mmHg 64%
    11:00 +11°C° 0 mm 4 m/s 754 mmHg 61%
    12:00 +12°C° 0 mm 4 m/s 754 mmHg 58%
    13:00 +13°C° 0 mm 4 m/s 754 mmHg 54%
    14:00 +12°C° 0 mm 4 m/s 754 mmHg 58%
    15:00 +12°C° 0 mm 4 m/s 753 mmHg 62%
    16:00 +12°C° 0 mm 4 m/s 753 mmHg 66%
    17:00 +11°C° 0.3 mm 4 m/s 753 mmHg 71%
    18:00 +9°C° 0.3 mm 5 m/s 753 mmHg 76%
    19:00 +9°C° 0.3 mm 5 m/s 754 mmHg 81%
    20:00 +8°C° 0 mm 4 m/s 754 mmHg 81%
    21:00 +7°C° 0 mm 4 m/s 754 mmHg 81%
    22:00 +6°C° 0 mm 4 m/s 754 mmHg 80%
    23:00 +6°C° 0 mm 4 m/s 754 mmHg 82%

    Demain, 23 Octobre, Mardi

    Heure Température Précipitation Vent Pression Humidité
    00:00 +5°C° 0 mm 4 m/s 754 mmHg 84%
    01:00 +4°C° 0 mm 4 m/s 754 mmHg 86%
    02:00 +4°C° 0 mm 4 m/s 754 mmHg 86%
    03:00 +4°C° 0 mm 4 m/s 753 mmHg 85%
    04:00 +4°C° 0 mm 4 m/s 753 mmHg 84%
    05:00 +3°C° 0 mm 5 m/s 752 mmHg 82%
    06:00 +5°C° 0 mm 5 m/s 751 mmHg 79%
    07:00 +4°C° 0 mm 6 m/s 751 mmHg 77%
    08:00 +4°C° 0.5 mm 7 m/s 750 mmHg 76%
    09:00 +4°C° 0.5 mm 8 m/s 749 mmHg 75%
    10:00 +5°C° 0.5 mm 9 m/s 748 mmHg 75%
    11:00 +5°C° 1 mm 10 m/s 746 mmHg 76%
    12:00 +5°C° 1 mm 10 m/s 745 mmHg 77%
    13:00 +4°C° 1 mm 11 m/s 744 mmHg 78%
    14:00 +6°C° 0.6 mm 11 m/s 743 mmHg 79%
    15:00 +6°C° 0.6 mm 11 m/s 742 mmHg 79%
    16:00 +7°C° 0.6 mm 12 m/s 741 mmHg 80%
    17:00 +7°C° 1 mm 11 m/s 740 mmHg 81%
    18:00 +8°C° 1 mm 11 m/s 739 mmHg 83%
    19:00 +8°C° 1 mm 11 m/s 739 mmHg 85%
    20:00 +8°C° 1.4 mm 11 m/s 738 mmHg 85%
    21:00 +9°C° 1.4 mm 11 m/s 737 mmHg 84%
    22:00 +9°C° 1.4 mm 11 m/s 737 mmHg 84%
    23:00 +9°C° 1.3 mm 10 m/s 736 mmHg 83%

    Après-demain, 24 Octobre, Mercredi

    Heure Température Précipitation Vent Pression Humidité
    00:00 +9°C° 1.3 mm 10 m/s 736 mmHg 82%
    01:00 +8°C° 1.3 mm 10 m/s 735 mmHg 80%
    02:00 +7°C° 0.5 mm 10 m/s 735 mmHg 76%
    03:00 +7°C° 0.5 mm 11 m/s 735 mmHg 71%
    04:00 +5°C° 0.5 mm 12 m/s 736 mmHg 67%
    05:00 +4°C° 0.1 mm 11 m/s 737 mmHg 64%
    06:00 +3°C° 0.1 mm 10 m/s 738 mmHg 61%
    07:00 +3°C° 0.1 mm 9 m/s 739 mmHg 59%
    08:00 +3°C° 0 mm 10 m/s 739 mmHg 54%
    09:00 +4°C° 0 mm 11 m/s 740 mmHg 50%
    10:00 +4°C° 0 mm 12 m/s 741 mmHg 45%
    11:00 +6°C° 0 mm 11 m/s 741 mmHg 44%
    12:00 +6°C° 0 mm 11 m/s 742 mmHg 43%
    13:00 +7°C° 0 mm 11 m/s 742 mmHg 42%
    14:00 +6°C° 0 mm 10 m/s 743 mmHg 43%
    15:00 +6°C° 0 mm 9 m/s 743 mmHg 44%
    16:00 +5°C° 0 mm 8 m/s 744 mmHg 45%
    17:00 +5°C° 0 mm 7 m/s 744 mmHg 47%
    18:00 +4°C° 0 mm 7 m/s 745 mmHg 50%
    19:00 +4°C° 0 mm 6 m/s 745 mmHg 52%
    20:00 +3°C° 0 mm 6 m/s 746 mmHg 56%
    21:00 +3°C° 0 mm 6 m/s 746 mmHg 60%
    22:00 +3°C° 0 mm 5 m/s 746 mmHg 65%
    23:00 +3°C° 0 mm 5 m/s 746 mmHg 67%

    25 Octobre, Jeudi

    Heure Température Précipitation Vent Pression Humidité
    00:00 +3°C° 0 mm 5 m/s 746 mmHg 70%
    01:00 +3°C° 0 mm 4 m/s 745 mmHg 73%
    02:00 +3°C° 0 mm 5 m/s 745 mmHg 74%
    03:00 +3°C° 0 mm 5 m/s 744 mmHg 75%
    04:00 +5°C° 0 mm 5 m/s 743 mmHg 77%
    05:00 +5°C° 0.6 mm 6 m/s 743 mmHg 81%
    06:00 +6°C° 0.6 mm 7 m/s 742 mmHg 85%
    07:00 +7°C° 0.6 mm 8 m/s 741 mmHg 89%
    08:00 +7°C° 0.1 mm 9 m/s 741 mmHg 86%
    09:00 +8°C° 0.1 mm 9 m/s 740 mmHg 83%
    10:00 +8°C° 0.1 mm 10 m/s 740 mmHg 80%
    11:00 +8°C° 0.2 mm 10 m/s 740 mmHg 79%
    12:00 +9°C° 0.2 mm 10 m/s 740 mmHg 77%
    13:00 +9°C° 0.2 mm 10 m/s 740 mmHg 76%
    14:00 +8°C° 0.1 mm 9 m/s 741 mmHg 74%
    15:00 +8°C° 0.1 mm 9 m/s 741 mmHg 72%
    16:00 +9°C° 0.1 mm 8 m/s 742 mmHg 69%
    17:00 +7°C° 0 mm 8 m/s 742 mmHg 72%
    18:00 +8°C° 0 mm 7 m/s 742 mmHg 74%
    19:00 +7°C° 0 mm 6 m/s 743 mmHg 77%
    20:00 +7°C° 0 mm 6 m/s 743 mmHg 77%
    21:00 +7°C° 0 mm 6 m/s 743 mmHg 77%
    22:00 +7°C° 0 mm 6 m/s 744 mmHg 77%
    23:00 +7°C° 0 mm 5 m/s 744 mmHg 78%

    26 Octobre, Vendredi

    Heure Température Précipitation Vent Pression Humidité
    00:00 +6°C° 0 mm 5 m/s 744 mmHg 79%
    01:00 +6°C° 0 mm 5 m/s 744 mmHg 80%
    02:00 +6°C° 0 mm 5 m/s 744 mmHg 81%
    03:00 +6°C° 0 mm 4 m/s 744 mmHg 82%
    04:00 +5°C° 0 mm 4 m/s 744 mmHg 83%
    05:00 +5°C° 0 mm 4 m/s 744 mmHg 84%
    06:00 +5°C° 0 mm 4 m/s 744 mmHg 85%
    07:00 +5°C° 0 mm 3 m/s 744 mmHg 86%
    08:00 +7°C° 0 mm 3 m/s 744 mmHg 82%
    09:00 +8°C° 0 mm 3 m/s 744 mmHg 78%
    10:00 +9°C° 0 mm 3 m/s 744 mmHg 74%
    11:00 +10°C° 0 mm 3 m/s 743 mmHg 72%
    12:00 +10°C° 0 mm 4 m/s 743 mmHg 70%
    13:00 +11°C° 0 mm 4 m/s 743 mmHg 68%
    14:00 +11°C° 0 mm 3 m/s 742 mmHg 71%
    15:00 +11°C° 0 mm 3 m/s 742 mmHg 74%
    16:00 +10°C° 0 mm 3 m/s 741 mmHg 77%
    17:00 +10°C° 0 mm 3 m/s 741 mmHg 77%
    18:00 +10°C° 0 mm 4 m/s 741 mmHg 78%
    19:00 +10°C° 0 mm 4 m/s 740 mmHg 78%
    20:00 +10°C° 0 mm 4 m/s 740 mmHg 77%
    21:00 +9°C° 0 mm 5 m/s 740 mmHg 77%
    22:00 +9°C° 0 mm 5 m/s 739 mmHg 76%
    23:00 +10°C° 0 mm 4 m/s 739 mmHg 77%

    27 Octobre, Samedi

    Heure Température Précipitation Vent Pression Humidité
    00:00 +10°C° 0 mm 4 m/s 739 mmHg 78%
    01:00 +10°C° 0 mm 4 m/s 739 mmHg 79%
    02:00 +9°C° 0 mm 3 m/s 738 mmHg 81%
    03:00 +9°C° 0 mm 3 m/s 738 mmHg 83%
    04:00 +8°C° 0 mm 3 m/s 738 mmHg 86%
    05:00 +8°C° 0 mm 2 m/s 738 mmHg 87%
    06:00 +7°C° 0 mm 2 m/s 738 mmHg 89%
    07:00 +7°C° 0 mm 2 m/s 738 mmHg 91%
    08:00 +8°C° 0 mm 2 m/s 738 mmHg 85%
    09:00 +9°C° 0 mm 2 m/s 738 mmHg 80%
    10:00 +10°C° 0 mm 2 m/s 737 mmHg 75%
    11:00 +12°C° 0.1 mm 1 m/s 737 mmHg 74%
    12:00 +12°C° 0.1 mm 1 m/s 737 mmHg 73%
    13:00 +12°C° 0.1 mm 1 m/s 736 mmHg 72%
    14:00 +12°C° 0.3 mm 1 m/s 736 mmHg 75%
    15:00 +10°C° 0.3 mm 2 m/s 735 mmHg 78%
    16:00 +10°C° 0.3 mm 2 m/s 735 mmHg 82%
    17:00 +10°C° 0.8 mm 3 m/s 735 mmHg 84%
    18:00 +8°C° 0.8 mm 4 m/s 735 mmHg 87%
    19:00 +8°C° 0.8 mm 4 m/s 734 mmHg 90%
    20:00 +7°C° 0.5 mm 4 m/s 734 mmHg 90%
    21:00 +7°C° 0.5 mm 4 m/s 734 mmHg 91%
    22:00 +7°C° 0.5 mm 4 m/s 734 mmHg 91%
    23:00 +7°C° 0.6 mm 5 m/s 734 mmHg 91%

    28 Octobre, Dimanche

    Heure Température Précipitation Vent Pression Humidité
    00:00 +7°C° 0.6 mm 5 m/s 733 mmHg 90%
    01:00 +6°C° 0.6 mm 5 m/s 733 mmHg 90%
    02:00 +6°C° 0.7 mm 5 m/s 733 mmHg 90%
    03:00 +5°C° 0.7 mm 6 m/s 734 mmHg 89%
    04:00 +5°C° 0.7 mm 6 m/s 734 mmHg 89%
    05:00 +5°C° 0.3 mm 5 m/s 735 mmHg 88%
    06:00 +5°C° 0.3 mm 5 m/s 735 mmHg 88%
    07:00 +5°C° 0.3 mm 5 m/s 736 mmHg 87%
    08:00 +5°C° 0.1 mm 5 m/s 737 mmHg 84%
    09:00 +6°C° 0.1 mm 5 m/s 738 mmHg 82%
    10:00 +6°C° 0.1 mm 5 m/s 740 mmHg 79%
    11:00 +7°C° 0 mm 4 m/s 740 mmHg 74%
    12:00 +7°C° 0 mm 4 m/s 741 mmHg 69%
    13:00 +8°C° 0 mm 4 m/s 741 mmHg 65%
    14:00 +9°C° 0 mm 3 m/s 742 mmHg 66%
    15:00 +8°C° 0 mm 2 m/s 742 mmHg 68%
    16:00 +8°C° 0 mm 2 m/s 743 mmHg 69%
    17:00 +8°C° 0 mm 1 m/s 743 mmHg 72%
    18:00 +8°C° 0 mm 1 m/s 744 mmHg 75%
    19:00 +7°C° 0 mm 1 m/s 745 mmHg 77%
    20:00 +7°C° 0 mm 1 m/s 745 mmHg 79%
    21:00 +7°C° 0 mm 1 m/s 745 mmHg 81%
    22:00 +6°C° 0 mm 1 m/s 746 mmHg 82%
    23:00 +6°C° 0 mm 1 m/s 746 mmHg 83%
    Voir plus